Muscle Shoals, AL

3:14 PM CDT on July 23, 2016 (GMT -0500)
Northwest Alabama Regional

Weather History for KMSL - December, 2012

Change the Weather History Date:

Thursday, December 27, 2012

  Actual Average Record
Temperature  
Mean Temperature 34 °F 41 °F  
Max Temperature 37 °F 51 °F 78 °F (2015)
Min Temperature 30 °F 32 °F 10 °F (1935)
Degree Days  
Heating Degree Days 31 24  
Month to date heating degree days 368 578  
Since 1 July heating degree days 988 1140  
Cooling Degree Days 0 0  
Month to date cooling degree days 2 0  
Year to date cooling degree days 2165 1871  
Moisture  
Dew Point 27 °F    
Average Humidity 73    
Maximum Humidity 82    
Minimum Humidity 64    
Precipitation  
Precipitation 0.00 in 0.15 in 2.36 in (1942)
Month to date precipitation 4.98 5.08  
Year to date precipitation 42.54 52.60  
Snow  
Snow 0.00 in - - ()
Month to date snowfall T  
Since 1 July snowfall T  
Snow Depth 0.00 in    
Sea Level Pressure  
Sea Level Pressure 30.16 in    
Wind  
Wind Speed 4 mph (ENE)    
Max Wind Speed 12 mph    
Max Gust Speed 15 mph    
Visibility 10 miles    
Events      
T = Trace of Precipitation, MM = Missing Value Source: NWS Daily Summary

Daily Weather History Graph

Daily Weather History Graph

Search for Another Location

Airport or City:

Trip Planner

Search our weather history database for the weather conditions in past years. The results will help you decide how hot, cold, wet, or windy it might be!

Date:

Astronomy

Dec. 27, 2012 Rise Set
Actual Time 6:56 AM CST 4:47 PM CST
Civil Twilight 6:28 AM CST 5:15 PM CST
Nautical Twilight 5:56 AM CST 5:46 PM CST
Astronomical Twilight 5:26 AM CST 6:17 PM CST
Moon 4:28 PM CST (12/27) 6:08 AM CST (12/27)
Length of Visible Light 10h 46m
Length of Day
9h 50m
Full, 100% of the Moon is Illuminated
Dec 27
Full
Dec 28
Full
Jan 4
Last Quarter
Jan 11
New
Jan 18
First Quarter

Hourly Weather History & Observations

Time (CST) Temp. Windchill Dew Point Humidity Pressure Visibility Wind Dir Wind Speed Gust Speed Precip Events Conditions
12:53 AM 34.0 °F 26.6 °F 26.1 °F 73% 30.16 in 10.0 mi NNW 9.2 mph - N/A   Overcast
1:53 AM 34.0 °F 28.8 °F 26.1 °F 73% 30.17 in 10.0 mi NNW 5.8 mph - N/A   Overcast
2:53 AM 34.0 °F 27.2 °F 26.1 °F 73% 30.17 in 10.0 mi NW 8.1 mph - N/A   Overcast
3:53 AM 34.0 °F 28.8 °F 26.1 °F 73% 30.17 in 10.0 mi NNW 5.8 mph - N/A   Overcast
4:53 AM 34.0 °F 31.0 °F 26.1 °F 73% 30.13 in 10.0 mi ENE 3.5 mph - N/A   Overcast
5:53 AM 34.0 °F 29.8 °F 26.1 °F 73% 30.17 in 10.0 mi ENE 4.6 mph - N/A   Overcast
6:53 AM 34.0 °F 28.8 °F 26.1 °F 73% 30.18 in 10.0 mi NE 5.8 mph - N/A   Overcast
7:53 AM 34.0 °F - 27.0 °F 75% 30.18 in 10.0 mi Calm Calm - N/A   Overcast
8:43 AM 35.6 °F - 26.6 °F 70% 30.19 in 10.0 mi Calm Calm - N/A   Overcast
8:53 AM 34.0 °F 31.0 °F 27.0 °F 75% 30.20 in 10.0 mi East 3.5 mph - N/A   Overcast
9:53 AM 35.1 °F - 27.0 °F 72% 30.22 in 10.0 mi Calm Calm - N/A   Overcast
10:53 AM 35.1 °F 32.2 °F 27.0 °F 72% 30.22 in 10.0 mi ESE 3.5 mph - N/A   Overcast
11:15 AM 35.6 °F - 28.4 °F 75% 30.19 in 10.0 mi Calm Calm - N/A   Overcast
11:53 AM 36.0 °F - 28.0 °F 73% 30.19 in 10.0 mi Calm Calm - N/A   Overcast
12:53 PM 37.0 °F 34.5 °F 28.0 °F 70% 30.16 in 10.0 mi Variable 3.5 mph - N/A   Overcast
1:53 PM 36.0 °F 31.1 °F 27.0 °F 70% 30.16 in 10.0 mi East 5.8 mph - N/A   Overcast
3:53 PM 37.0 °F 33.3 °F 27.0 °F 67% 30.15 in 10.0 mi East 4.6 mph - N/A   Overcast
4:53 PM 36.0 °F 32.1 °F 28.0 °F 73% 30.14 in 10.0 mi ESE 4.6 mph - N/A   Overcast
5:53 PM 36.0 °F - 28.0 °F 73% 30.14 in 10.0 mi Calm Calm - N/A   Overcast
6:53 PM 36.0 °F 31.1 °F 28.0 °F 73% 30.15 in 10.0 mi SSE 5.8 mph - N/A   Overcast
7:53 PM 35.1 °F 32.2 °F 28.0 °F 76% 30.14 in 10.0 mi ESE 3.5 mph - N/A   Overcast
8:53 PM 33.1 °F - 27.0 °F 78% 30.14 in 10.0 mi Calm Calm - N/A   Partly Cloudy
9:53 PM 32.0 °F 28.7 °F 27.0 °F 82% 30.13 in 10.0 mi ESE 3.5 mph - N/A   Clear
10:53 PM 33.1 °F - 28.0 °F 82% 30.13 in 10.0 mi Calm Calm - N/A   Clear
11:53 PM 32.0 °F 27.5 °F 27.0 °F 82% 30.09 in 10.0 mi ESE 4.6 mph - N/A   Clear